FW2567 Weather Reports


Display with metric or nautical units.
time (UTC)temp
F
wind
direction
speed
MPH
gust
MPH
rain 1hr
in
rain 24hr
in
rain mn
in
humidity
%
barometer
mb
20260506170030 68 299 5.0 10.0 0.00 0.00 0.00 54 1019.7
20260506164530 67 301 6.0 13.0 0.00 0.00 0.00 56 1019.7
20260506163031 66 279 7.0 17.0 0.00 0.00 0.00 58 1020.2
20260506161529 66 282 7.0 14.0 0.00 0.00 0.00 59 1020.3
20260506154530 67 268 4.0 14.0 0.00 0.00 0.00 61 1020.1
20260506153107 66 116 0.0 3.0 0.00 0.00 0.00 68 1020.0
20260506151530 64 145 1.0 3.0 0.00 0.00 0.00 76 1019.9
20260506150106 62 117 0.0 4.0 0.00 0.00 0.00 82 1020.2
20260506144530 59 131 0.0 2.0 0.00 0.00 0.00 87 1020.2
20260506141646 53 174 1.0 3.0 0.00 0.00 0.00 93 1020.1
20260506134534 47 221 1.0 3.0 0.00 0.00 0.00 95 1019.7
20260506133144 45 182 3.0 6.0 0.00 0.00 0.00 96 1019.5
20260506131531 44 218 4.0 11.0 0.00 0.00 0.00 96 1019.4
20260506130031 43 175 2.0 6.0 0.00 0.00 0.00 96 1019.3
20260506124533 43 144 2.0 5.0 0.00 0.00 0.00 96 1019.2
20260506123037 42 184 0.0 4.0 0.00 0.00 0.00 96 1019.0
20260506121539 42 159 1.0 5.0 0.00 0.00 0.00 96 1018.8
20260506120030 42 158 1.0 3.0 0.00 0.00 0.00 96 1018.7
20260506114603 42 145 1.0 4.0 0.00 0.00 0.00 95 1018.6
20260506113104 42 135 0.0 2.0 0.00 0.00 0.00 95 1018.4
20260506110030 43 138 1.0 3.0 0.00 0.00 0.00 95 1018.2
20260506103032 43 149 1.0 4.0 0.00 0.00 0.00 95 1017.9
20260506101529 43 157 1.0 3.0 0.00 0.00 0.00 95 1017.9
20260506100053 43 146 1.0 3.0 0.00 0.00 0.00 95 1017.8
20260506093145 44 157 1.0 2.0 0.00 0.00 0.00 94 1017.8
20260506091532 44 157 0.0 0.0 0.00 0.00 0.00 94 1017.7
20260506090037 45 157 0.0 3.0 0.00 0.00 0.00 94 1017.7
20260506084530 45 157 0.0 3.0 0.00 0.00 0.00 94 1017.6
20260506083028 46 157 1.0 4.0 0.00 0.00 0.00 93 1017.5
20260506081607 46 157 1.0 4.0 0.00 0.00 0.00 93 1017.4
20260506073032 46 148 0.0 3.0 0.00 0.00 0.00 92 1017.1
20260506071532 47 292 0.0 0.0 0.00 0.00 0.00 92 1017.0
20260506061607 49 157 3.0 4.0 0.00 0.00 0.00 90 1016.8
20260506043028 54 140 2.0 4.0 0.00 0.00 0.00 79 1015.9
20260506041531 56 107 1.0 4.0 0.00 0.00 0.00 77 1015.8
20260506034528 59 109 2.0 5.0 0.00 0.00 0.00 71 1015.2
20260506031608 64 57 2.0 6.0 0.00 0.00 0.00 63 1014.7
20260506024530 67 38 3.0 9.0 0.00 0.00 0.00 59 1014.3
20260506023029 68 41 2.0 7.0 0.00 0.00 0.00 57 1014.3
20260506021531 70 19 3.0 9.0 0.00 0.00 0.00 54 1014.1
20260506020111 72 14 5.0 11.0 0.00 0.00 0.00 52 1013.9
20260506014531 73 11 3.0 7.0 0.00 0.00 0.00 50 1013.8
20260506013029 75 5 3.0 7.0 0.00 0.00 0.00 48 1013.7
20260506011535 77 325 2.0 6.0 0.00 0.00 0.00 46 1013.7
20260506004533 78 287 4.0 9.0 0.00 0.00 0.00 46 1013.7
20260506003029 78 277 5.0 13.0 0.00 0.00 0.00 46 1013.7
20260506000106 79 325 6.0 11.0 0.00 0.00 0.00 44 1013.7
20260505234539 79 319 5.0 12.0 0.00 0.00 0.00 45 1013.8
20260505233103 80 10 4.0 8.0 0.00 0.00 0.00 44 1013.8
20260505230036 77 61 5.0 13.0 0.00 0.00 0.00 50 1013.9
20260505223030 76 53 6.0 13.0 0.00 0.00 0.00 50 1014.1
20260505221531 77 44 6.0 14.0 0.00 0.00 0.00 48 1014.3
20260505220036 76 23 5.0 10.0 0.00 0.00 0.00 48 1014.3
20260505213033 74 25 5.0 13.0 0.00 0.00 0.00 51 1014.5
20260505211530 74 20 5.0 11.0 0.00 0.00 0.00 52 1014.6
20260505210030 73 30 5.0 12.0 0.00 0.00 0.00 51 1014.8
20260505203033 73 7 4.0 9.0 0.00 0.00 0.00 50 1015.1
20260505201530 74 25 6.0 11.0 0.00 0.00 0.00 49 1015.1
20260505200107 73 19 4.0 9.0 0.00 0.00 0.00 48 1015.2
20260505194530 74 17 5.0 11.0 0.00 0.00 0.00 47 1015.2
20260505193107 74 7 4.0 9.0 0.00 0.00 0.00 47 1015.3
20260505191531 74 27 4.0 8.0 0.00 0.00 0.00 47 1015.4
20260505190030 74 20 4.0 8.0 0.00 0.00 0.00 47 1015.4
20260505184606 73 21 4.0 10.0 0.00 0.00 0.00 46 1015.5
20260505183030 73 346 3.0 8.0 0.00 0.00 0.00 46 1015.6
20260505181531 73 347 3.0 8.0 0.00 0.00 0.00 47 1015.6
20260505180112 73 354 3.0 7.0 0.00 0.00 0.00 47 1015.5
20260505174535 71 317 3.0 8.0 0.00 0.00 0.00 49 1015.5
20260505171531 71 311 3.0 8.0 0.00 0.00 0.00 49 1015.4